sat.trackr.live / text

‹ back to catalog

INMARSAT 3-F5

NORAD 25153 · 1998-006B

PAYLOAD ACTIVE UNKNOWN

§ Identity

Operator
Country
IM
Launch date
1998-02-04
Launch site
FRGUI
Launch vehicle
Mass (kg)
RCS (m²)
14.50

Purposes: comms

External: N2YO · Heavens-Above · Gunter

§ Orbital elements

Epoch: 2026-05-25T05:03:14.300352Z

Period
1,436.13 min
Inclination
9.6444°
Eccentricity
0.0005112
Mean motion
1.00269244 rev/d
Perigee alt
35,765.8 km
Apogee alt
35,808.9 km
Semi-major
42,165.4 km
B*
0.0000e+0
RAAN
53.4885°
Arg perigee
7.3641°
Mean anomaly
203.7419°
Rev number
10,366

§ Raw data

INMARSAT 3-F51 25153U 98006B   26145.21058218 -.00000294  00000+0  00000+0 0  99982 25153   9.6444  53.4885 0005112   7.3641 203.7419  1.00269244103668

JSON: /api/v1/satellites/25153 · /tle

For live sub-satellite position, see the globe view (requires WebGL).

§ Visibility from observer

Set your observer location to see the next 7 days of passes ≥ 10°. The values pass through the URL so the page stays shareable.

No JS? Fill the form by hand. The geolocation button needs JavaScript.